Location: ????????
(60.5616°N, 46.8254°E)
Time: 07:48:06
(UTC+00:00)

YAOGAN 1 - Pass Details

Date: 18 February 2020
Orbit: 618 x 621 km, 97.9° (Epoch: 31 March)

Event Time Altitude Azimuth Distance (km) Brightness Sun altitude
Rises 15:11:21 0° 168° (SSE) 2,893 5.9 -10.7°
Reaches altitude 10° 15:13:32 10° 171° (S) 1,991 5.1 -11.0°
Maximum altitude 15:17:51 70° 255° (WSW) 668 2.9 -11.5°
Drops below altitude 10° 15:22:13 10° 340° (NNW) 2,006 5.4 -12.1°
Sets 15:24:26 0° 343° (NNW) 2,916 6.2 -12.3°
